Location: Monteux
(44.0348°N, 4.9972°E)
Time: 15:01:38
(UTC+00:00)

Cosmos 1603 - Visible Passes

Search period start: 20 April 2021 00:00
Search period end: 30 April 2021 00:00
Orbit: 830 x 861 km, 71.0° (Epoch: 19 April)

Date Brightness Start Highest point End Pass type
(mag) Time Alt. Az. Time Alt. Az. Time Alt. Az.
20 Apr 5.0 21:17:44 10° N 21:22:34 27° NE 21:23:15 26° ENE visible
20 Apr 4.8 23:01:27 10° NW 23:05:08 37° WNW 23:05:08 37° WNW visible
21 Apr 5.0 21:03:46 10° N 21:08:33 26° NE 21:09:37 25° ENE visible
21 Apr 4.6 22:47:27 10° NNW 22:51:30 42° WNW 22:51:30 42° WNW visible
22 Apr 5.0 20:49:49 10° N 20:54:33 26° NE 20:55:59 23° ENE visible
22 Apr 4.4 22:33:27 10° NNW 22:37:52 47° WNW 22:37:52 47° WNW visible
23 Apr 5.1 20:35:52 10° N 20:40:32 25° NE 20:42:23 21° E visible
23 Apr 4.2 22:19:27 10° NNW 22:24:17 53° WNW 22:24:17 53° WNW visible
24 Apr 5.2 20:21:54 10° N 20:26:31 24° NE 20:28:49 19° E visible
24 Apr 4.0 22:05:27 10° NNW 22:10:42 59° W 22:10:42 59° W visible
25 Apr 5.2 20:07:57 10° N 20:12:30 24° NE 20:15:16 17° E visible
25 Apr 3.8 21:51:27 10° NNW 21:57:06 62° WSW 21:57:10 62° WSW visible
26 Apr 5.2 19:53:59 10° N 19:58:29 23° NE 20:01:46 15° E visible
26 Apr 3.8 21:37:28 10° NNW 21:43:07 64° WSW 21:43:39 61° SW visible
27 Apr 5.2 19:40:03 10° N 19:44:29 23° NE 19:48:17 12° E visible
27 Apr 3.8 21:23:28 10° NNW 21:29:08 67° WSW 21:30:10 55° SSW visible
28 Apr 5.2 19:26:05 10° N 19:30:28 22° NE 19:34:47 10° E visible
28 Apr 3.8 21:09:28 10° NNW 21:15:08 69° WSW 21:16:43 47° S visible
29 Apr 5.3 19:12:08 10° N 19:16:27 21° NE 19:20:43 10° E visible
29 Apr 3.8 20:55:29 10° NNW 21:01:10 71° WSW 21:03:18 39° S visible
